Tracking 31027 objects as of 19-Jul-2025
HD Live streaming from Space Station
objects crossing your sky now

SL-14 DEB

Track SL-14 DEB now!
10-day predictions


NORAD ID: 45285
Int'l Code: 1991-056X
Perigee: 1,183.4 km
Apogee: 1,351.6 km
Inclination: 82.6 °
Period: 110.7 minutes
Semi major axis: 7638 km
RCS: Unknown
Launch date: August 15, 1991
Source: Commonwealth of Independent States (former USSR) (CIS)
Launch site: PLESETSK MISSILE AND SPACE COMPLEX (PKMTR)

Note: This is SATELLITE DEBRIS
Your satellite tracking list
IRIDIUM 134
Track 1 satellite(s)




NASA's NSSDC Master Catalog

Two Line Element Set (TLE):
1 45285U 91056X   25199.05211926  .00000442  00000-0  13786-2 0  9994
2 45285  82.5650  59.6424 0110100 156.7996 203.8142 13.00431362257274
Source of the keplerian elements: AFSPC